Regional Weather Roundup
Issued by NWS

Home | Current Version | Previous Version | Graphics & Text | Print | Product List | Glossary On
Versions: 1 2 3 4 5 6 7 8 9 10 11 12 13 14 15 16 17 18 19 20 21 22 23 24 25 26 27 28 29 30 31 32 33 34 35 36 37 38 39 40 41 42 43 44 45 46 47 48 49 50
000
ASUS43 KFSD 302110
RWRSD

WEATHER ROUNDUP FOR SOUTH DAKOTA
NATIONAL WEATHER SERVICE SIOUX FALLS SD
400 PM CDT SUN AUG 30 2015

NOTE: "FAIR" INDICATES FEW OR NO CLOUDS BELOW 12,000 FEET WITH NO
SIGNIFICANT WEATHER AND/OR OBSTRUCTIONS TO VISIBILITY.


SDZ001>005-009-010-012>017-302200-
NORTHWEST AND NORTH CENTRAL SOUTH DAKOTA

CITY           SKY/WX    TMP DP  RH WIND       PRES   REMARKS
BUFFALO          N/A     93  48  21 NW14      29.71S
FAITH            N/A     95  51  22 SW14      29.72S
MOBRIDGE       PTSUNNY   96  59  29 S22G29    29.66F HX  95
$$

SDZ012>016-024>037-041>051-057-063-072>074-302200-
SOUTHWEST AND SOUTH CENTRAL SOUTH DAKOTA

CITY           SKY/WX    TMP DP  RH WIND       PRES   REMARKS
RAPID CTY ARPT SUNNY     98  52  21 S18       29.75F HX  95
PIERRE         PTSUNNY   98  51  20 S25       29.70F HAZE    HX  95
CUSTER         SUNNY     91  39  16 W7        29.97F
ELLSWORTH AFB  SUNNY     99  52  20 SE15      29.74F HX  96
PHILIP         SUNNY     99  56  23 S16       29.70F HX  97
PINE RIDGE     SUNNY     98  48  18 S13       29.82F
WINNER         FAIR      95  48  20 S23G36    29.80F HAZE
$$

SDZ004>011-016>023-039-040-302200-
NORTHEAST SOUTH DAKOTA

CITY           SKY/WX    TMP DP  RH WIND       PRES   REMARKS
ABERDEEN       MOSUNNY   84  69  60 SE18G25   29.76F
WATERTOWN      SUNNY     81  67  62 S14       29.86F
BROOKINGS      SUNNY     77  66  69 S13G20    29.92F
SISSETON         N/A     89  66  46 S15       29.78F
$$

SDZ017-020-022-023-036>040-048>070-302200-
SOUTHEAST SOUTH DAKOTA

CITY           SKY/WX    TMP DP  RH WIND       PRES   REMARKS
SIOUX FALLS    CLOUDY    76  66  71 S16       29.92F
HURON          SUNNY     85  70  60 S20G25    29.80F
CHAMBERLAIN    SUNNY     89  60  38 S12G18    29.79F
MITCHELL       SUNNY     83  70  64 S21G28    29.85F
YANKTON        SUNNY     79  68  69 SE14      29.90F
$$

ABBREVIATIONS USED IN REMARKS
   TC - TEMPERATURE IN CELSIUS
  WCI - WIND CHILL INDEX
   HX - HEAT INDEX
  VSB - VISIBILITY




USA.gov is the U.S. government's official web portal to all federal, state and local government web resources and services.